RH
33 32 32 26 19 20 23 23 23 23 23 23 23 22 20 19 18 18 18 17 18 17 17 17 17 16 16 16 16 16 15 15 15 14 14 14 14 14 14 14 14 13 13 12 12 12 12 12 11 11 11 11
34 34 32 24 22 25 26 25 25 25 26 25 25 25 24 23 21 21 20 20 19 19 19 19 18 18 17 17 17 16 16 16 15 15 15 14 14 14 14 14 14 14 14 13 13 12 12 12 12 12 12 11
38 37 31 26 28 30 29 29 29 29 28 28 27 27 26 25 24 24 23 23 23 23 23 22 22 21 21 20 19 19 18 18 17 16 16 16 16 15 15 15 15 14 14 14 14 13 14 13 13 12 12 12
41 37 31 30 32 32 32 32 32 31 30 29 28 27 27 26 26 26 25 25 25 25 25 25 25 24 24 23 23 22 22 21 21 20 20 19 18 17 17 17 16 16 16 15 15 14 14 14 14 13 13 13
41 36 34 35 35 35 36 36 35 35 33 32 31 30 30 29 29 28 28 27 27 26 26 25 25 25 24 24 24 23 23 23 23 23 23 23 22 22 21 20 19 19 18 17 17 16 16 15 15 14 14 14
41 40 39 39 38 39 39 38 38 37 36 34 33 33 33 32 32 32 31 31 30 30 29 29 28 28 27 26 26 25 25 25 25 25 25 25 25 25 25 24 24 23 22 21 20 19 18 17 17 16 16 15
41 40 39 38 38 38 37 36 35 34 32 31 31 31 30 30 29 28 28 28 28 28 28 28 28 28 29 29 29 29 28 28 28 28 28 28 27 27 26 26 26 26 26 25 24 23 22 21 20 19 18 17
37 35 33 32 32 30 29 27 26 25 24 23 23 23 22 22 21 20 20 20 20 21 21 21 22 23 24 24 25 26 26 27 28 28 29 29 29 29 29 29 29 28 28 28 27 27 26 25 24 23 22 20
29 26 25 24 23 21 20 19 19 18 18 17 17 16 16 15 15 15 14 14 15 15 15 15 16 17 17 18 19 19 20 21 22 23 24 25 26 27 28 28 29 30 30 30 30 30 29 29 28 27 26 24
22 20 19 19 18 17 17 16 16 15 15 15 14 14 13 12 12 12 12 12 13 13 13 13 13 14 13 14 14 14 14 14 15 16 17 18 19 20 21 23 24 25 26 27 29 30 30 31 31 31 30 28
19 18 18 17 17 16 16 15 15 15 14 13 13 12 12 12 12 12 13 13 13 13 12 12 11 11 10 10 10 9 9 10 10 10 10 11 12 13 14 15 16 17 19 20 21 23 25 26 28 30 31 32
18 17 17 16 16 15 15 15 14 14 13 12 12 12 12 13 13 13 14 13 12 11 10 10 9 9 8 8 8 7 7 7 7 7 7 7 7 7 8 8 9 10 11 12 14 15 16 18 20 22 25 27
17 17 16 16 15 15 14 14 14 13 13 12 12 13 13 14 14 13 12 11 10 10 9 9 9 9 8 8 7 7 6 6 5 5 5 5 5 5 5 5 6 6 6 7 7 8 9 11 12 14 16 18
17 16 16 15 15 15 15 14 14 13 13 13 14 14 15 14 13 12 11 11 10 10 10 10 10 9 8 7 6 6 6 6 6 6 5 5 5 5 5 5 5 5 5 5 5 5 6 6 7 8 9 11
17 16 15 15 15 15 15 15 14 14 14 15 15 15 14 13 12 11 12 12 12 12 11 10 9 8 7 7 7 7 6 6 6 6 6 6 6 6 6 5 5 5 5 5 5 5 5 5 5 6 6 6
16 16 16 16 16 16 15 15 15 15 16 16 16 15 14 13 13 13 13 13 13 12 11 9 9 8 8 8 8 7 7 7 7 7 6 6 6 6 6 6 6 6 5 5 5 5 5 5 5 5 5 5
16 16 16 16 16 16 16 16 16 17 17 16 15 14 14 14 14 15 14 14 12 11 10 10 9 9 9 9 9 8 8 8 8 8 7 7 7 7 7 7 6 6 6 6 6 6 5 5 5 5 5 5
17 17 17 17 17 17 17 17 18 18 17 16 15 15 15 16 16 15 14 13 11 11 11 11 10 10 10 10 10 10 10 10 9 9 9 8 8 8 8 8 7 7 7 7 7 6 6 6 6 6 6 5
18 18 18 18 17 18 18 19 19 18 17 16 16 17 17 17 16 15 14 13 12 12 12 12 12 12 12 11 11 11 11 11 11 10 10 10 10 9 9 9 9 8 8 8 7 7 7 7 6 6 6 6
19 19 19 18 18 19 19 20 19 18 17 17 18 18 18 17 16 14 14 14 13 13 13 13 13 13 13 13 12 12 12 12 12 12 12 11 11 11 10 10 10 9 9 8 8 8 8 7 7 7 7 6
20 19 19 19 19 19 20 20 19 19 18 18 19 19 18 17 15 15 15 15 15 14 14 14 14 14 13 13 13 13 13 13 13 13 13 12 12 12 12 11 11 10 10 10 9 9 9 8 8 8 8 7
20 19 19 19 20 21 21 20 20 19 20 20 20 19 18 17 17 17 17 17 16 16 16 15 15 14 14 14 14 14 14 14 14 14 14 13 13 13 13 12 12 12 11 11 11 10 10 10 9 9 8 8
20 20 20 21 21 22 22 22 21 21 22 22 21 20 19 19 19 20 19 19 19 18 18 17 16 16 15 15 14 14 14 14 15 15 15 14 14 14 14 13 13 13 12 12 12 12 11 11 10 10 10 9
20 21 21 22 23 24 24 24 24 24 25 24 22 22 22 22 23 23 23 23 23 22 21 20 19 18 17 16 16 16 16 16 16 15 16 15 15 15 15 14 14 14 13 13 13 12 12 12 11 11 10 10
21 22 23 24 26 26 26 26 26 26 26 25 24 24 25 26 26 26 27 27 27 27 26 25 23 21 20 19 18 17 17 17 17 17 17 16 16 16 16 16 15 15 14 14 14 13 13 13 13 13 13 11
21 23 24 26 27 28 28 27 28 28 27 26 26 27 27 28 29 29 30 30 30 31 31 30 28 26 24 22 21 20 19 19 19 18 18 18 18 17 17 17 16 16 15 15 15 14 14 14 15 16 16 14
22 24 25 27 29 29 29 28 29 29 28 27 28 29 30 31 32 32 32 33 34 34 34 34 32 31 28 27 25 23 22 21 21 21 20 20 19 19 18 18 17 17 17 16 15 15 16 16 16 16 16 17
23 24 26 27 28 29 28 28 30 30 29 28 30 31 33 34 35 35 36 36 37 37 37 37 37 35 33 31 29 27 25 24 23 23 22 22 21 20 20 19 18 18 18 17 17 17 17 17 17 17 17 17
23 24 26 27 28 28 28 28 29 30 29 29 31 33 35 36 38 39 39 40 40 41 41 41 41 40 38 36 34 31 29 27 26 25 24 23 22 22 21 21 20 19 18 18 17 17 17 18 19 19 19 17
23 25 26 27 27 27 28 28 29 30 30 30 32 35 37 39 40 42 42 43 43 44 45 45 45 44 43 40 39 36 34 31 29 28 27 26 24 24 23 22 21 20 19 19 18 18 18 18 19 19 20 19
24 26 27 27 27 27 28 29 30 32 33 32 34 36 38 40 42 44 46 46 47 48 49 50 50 49 47 45 43 42 39 36 33 32 30 28 27 25 24 23 23 22 21 20 20 20 19 19 19 19 19 20